Gilze-Rijen, Netherlands

8:14 AM CET on February 08, 2016 (GMT +0100)
Gilze-Rijen Air Base

Weather History for EHGR - February, 2013

Change the Weather History Date:

Thursday, February 7, 2013

  Actual Average Record
Temperature  
Mean Temperature 36 °F -  
Max Temperature 41 °F 44 °F - ()
Min Temperature 32 °F 33 °F - ()
Degree Days  
Heating Degree Days 28    
Moisture  
Dew Point 34 °F    
Average Humidity 95    
Maximum Humidity 100    
Minimum Humidity 81    
Precipitation  
Precipitation 0.00 in - - ()
Sea Level Pressure  
Sea Level Pressure 29.85 in    
Wind  
Wind Speed 8 mph ()    
Max Wind Speed 17 mph    
Max Gust Speed 29 mph    
Visibility 6.1 miles    
Events Rain    
T = Trace of Precipitation, MM = Missing Value Source: Averaged Metar Reports

Daily Weather History Graph

Daily Weather History Graph

Search for Another Location

Airport or City:

Trip Planner

Search our weather history database for the weather conditions in past years. The results will help you decide how hot, cold, wet, or windy it might be!

Date:

Astronomy

Feb. 07, 2013 Rise Set
Actual Time 8:08 AM CET 5:40 PM CET
Civil Twilight 7:33 AM CET 6:16 PM CET
Nautical Twilight 6:53 AM CET 6:55 PM CET
Astronomical Twilight 6:14 AM CET 7:34 PM CET
Moon 5:47 AM CET (2/7) 2:35 PM CET (2/7)
Length of Visible Light 10h 42m
Length of Day
9h 32m
Waning Crescent, 11% of the Moon is Illuminated
Feb 7
Waning Crescent
Feb 10
New
Feb 17
First Quarter
Feb 25
Full
Mar 4
Last Quarter

Hourly Weather History & Observations

Time (CET) Temp. Windchill Dew Point Humidity Pressure Visibility Wind Dir Wind Speed Gust Speed Precip Events Conditions
12:00 AM 37.4 °F 31.4 °F 33.8 °F 87% 29.77 in 6.2 mi NW 8.1 mph - N/A   Mostly Cloudy
12:04 AM 35.6 °F 29.2 °F 33.8 °F 93% 29.77 in 6.2 mi NW 8.1 mph - N/A   Mostly Cloudy
12:14 AM 33.8 °F 27.0 °F 32.0 °F 93% 29.77 in 6.2 mi NW 8.1 mph - N/A   Scattered Clouds
12:25 AM 35.6 °F 29.2 °F 33.8 °F 93% 29.77 in 6.2 mi NW 8.1 mph - N/A   Partly Cloudy
12:55 AM 33.8 °F 27.0 °F 32.0 °F 93% 29.77 in 6.2 mi WNW 8.1 mph - N/A   Unknown
1:09 AM 33.8 °F 27.0 °F 32.0 °F 93% 29.77 in 6.2 mi WNW 8.1 mph - N/A   Scattered Clouds
1:14 AM 33.8 °F 27.0 °F 32.0 °F 93% 29.77 in 6.2 mi WNW 8.1 mph - N/A   Partly Cloudy
1:25 AM 32.0 °F 24.8 °F 32.0 °F 100% 29.80 in 6.2 mi WNW 8.1 mph - N/A   Unknown
1:55 AM 33.8 °F 25.8 °F 32.0 °F 93% 29.80 in 6.2 mi WNW 10.4 mph - N/A   Unknown
2:03 AM 33.8 °F 25.8 °F 32.0 °F 93% 29.80 in 6.2 mi WNW 10.4 mph - N/A   Scattered Clouds
2:10 AM 33.8 °F 26.4 °F 32.0 °F 93% 29.80 in 6.2 mi WNW 9.2 mph - N/A   Scattered Clouds
2:25 AM 33.8 °F 26.4 °F 32.0 °F 93% 29.80 in 6.2 mi WNW 9.2 mph - N/A   Unknown
2:55 AM 33.8 °F 27.0 °F 32.0 °F 93% 29.80 in 6.2 mi WNW 8.1 mph - N/A   Partly Cloudy
3:25 AM 33.8 °F 26.4 °F 32.0 °F 93% 29.80 in 6.2 mi WNW 9.2 mph - N/A   Partly Cloudy
3:55 AM 33.8 °F 29.6 °F 32.0 °F 93% 29.80 in 6.2 mi NW 4.6 mph - N/A   Mostly Cloudy
4:25 AM 35.6 °F 26.6 °F 33.8 °F 93% 29.80 in 6.2 mi NW 13.8 mph - N/A Rain Light Rain Showers
4:29 AM 35.6 °F 27.1 °F 33.8 °F 93% 29.80 in 6.2 mi NW 12.7 mph - N/A   Mostly Cloudy
4:34 AM 35.6 °F 27.1 °F 33.8 °F 93% 29.80 in 6.2 mi NW 12.7 mph - N/A Rain Rain
4:44 AM 35.6 °F 28.0 °F 33.8 °F 93% 29.80 in 6.2 mi NW 10.4 mph - N/A   Mostly Cloudy
4:55 AM 33.8 °F 26.4 °F 33.8 °F 100% 29.80 in 6.2 mi WNW 9.2 mph - N/A   Scattered Clouds
5:25 AM 33.8 °F 27.0 °F 33.8 °F 100% 29.80 in 6.2 mi WNW 8.1 mph - N/A   Mostly Cloudy
5:55 AM 35.6 °F 26.6 °F 33.8 °F 93% 29.80 in 6.2 mi NW 13.8 mph - N/A Rain Light Rain
6:25 AM 35.6 °F 28.0 °F 33.8 °F 93% 29.83 in 6.2 mi NW 10.4 mph - N/A   Mostly Cloudy
6:55 AM 35.6 °F 28.6 °F 33.8 °F 93% 29.83 in 6.2 mi WNW 9.2 mph - N/A   Mostly Cloudy
7:25 AM 35.6 °F 28.0 °F 33.8 °F 93% 29.83 in 5.0 mi WNW 10.4 mph - N/A Rain Light Rain Showers
7:55 AM 35.6 °F 29.2 °F 33.8 °F 93% 29.83 in 5.6 mi WNW 8.1 mph - N/A Rain Light Rain
8:25 AM 33.8 °F 28.6 °F 33.8 °F 100% 29.86 in 6.2 mi WNW 5.8 mph - N/A   Partly Cloudy
8:55 AM 35.6 °F 28.6 °F 35.6 °F 100% 29.86 in 6.2 mi WNW 9.2 mph - N/A   Mostly Cloudy
9:25 AM 35.6 °F 29.2 °F 35.6 °F 100% 29.86 in 6.2 mi NW 8.1 mph - N/A   Overcast
9:55 AM 37.4 °F 30.8 °F 37.4 °F 100% 29.86 in 6.2 mi NW 9.2 mph - N/A   Mostly Cloudy
10:25 AM 35.6 °F 26.6 °F 33.8 °F 93% 29.89 in 1.4 mi NW 13.8 mph - N/A Rain Light Rain Showers
10:55 AM 35.6 °F 28.6 °F 35.6 °F 100% 29.89 in 6.2 mi WNW 9.2 mph - N/A   Overcast
11:25 AM 37.4 °F 31.4 °F 35.6 °F 93% 29.89 in 6.2 mi NW 8.1 mph - N/A   Mostly Cloudy
11:55 AM 39.2 °F 33.6 °F 37.4 °F 93% 29.89 in 6.2 mi WNW 8.1 mph - N/A   Mostly Cloudy
12:25 PM 39.2 °F 33.0 °F 35.6 °F 87% 29.89 in 6.2 mi NW 9.2 mph - N/A   Mostly Cloudy
12:55 PM 41.0 °F 34.7 °F 35.6 °F 81% 29.89 in 6.2 mi NW 10.4 mph - N/A   Scattered Clouds
1:25 PM 39.2 °F 31.2 °F 33.8 °F 81% 29.89 in 6.2 mi NW 13.8 mph - N/A   Drizzle
1:55 PM 37.4 °F 32.8 °F 37.4 °F 100% 29.89 in 6.2 mi WNW 5.8 mph - N/A   Unknown
2:25 PM 37.4 °F 27.8 °F 35.6 °F 93% 29.86 in 6.2 mi NW 17.3 mph 28.8 mph N/A   Heavy Drizzle
2:55 PM 41.0 °F 35.2 °F 37.4 °F 87% 29.86 in 6.2 mi WNW 9.2 mph - N/A   Partly Cloudy
3:25 PM 39.2 °F 33.6 °F 33.8 °F 81% 29.86 in 6.2 mi NNW 8.1 mph - N/A   Unknown
3:55 PM 37.4 °F 28.2 °F 33.8 °F 87% 29.89 in 6.2 mi NW 16.1 mph - N/A Rain Light Rain
4:25 PM 37.4 °F 31.4 °F 33.8 °F 87% 29.89 in 6.2 mi NW 8.1 mph - N/A   Partly Cloudy
4:55 PM 35.6 °F 29.2 °F 33.8 °F 93% 29.89 in 6.2 mi WNW 8.1 mph - N/A   Unknown
5:25 PM 35.6 °F 28.6 °F 33.8 °F 93% 29.89 in 6.2 mi WNW 9.2 mph - N/A   Mostly Cloudy
5:55 PM 35.6 °F 26.6 °F 33.8 °F 93% 29.89 in 6.2 mi WNW 13.8 mph - N/A Rain Light Rain
6:25 PM 33.8 °F 27.0 °F 33.8 °F 100% 29.89 in 6.2 mi WNW 8.1 mph - N/A   Drizzle
6:55 PM 35.6 °F 29.9 °F 33.8 °F 93% 29.89 in 6.2 mi West 6.9 mph - N/A   Mostly Cloudy
7:25 PM 33.8 °F 29.6 °F 33.8 °F 100% 29.89 in 6.2 mi WSW 4.6 mph - N/A   Overcast
7:41 PM 33.8 °F 29.6 °F 33.8 °F 100% 29.89 in 6.2 mi WSW 4.6 mph - N/A   Overcast
7:50 PM 33.8 °F 28.6 °F 33.8 °F 100% 29.89 in 6.2 mi WSW 5.8 mph - N/A   Mostly Cloudy
7:55 PM 33.8 °F 28.6 °F 33.8 °F 100% 29.89 in 6.2 mi WSW 5.8 mph - N/A   Mostly Cloudy
7:59 PM 33.8 °F 28.6 °F 33.8 °F 100% 29.89 in 6.2 mi WSW 5.8 mph - N/A   Mostly Cloudy
8:25 PM 33.8 °F 29.6 °F 33.8 °F 100% 29.89 in 6.2 mi West 4.6 mph - N/A   Mostly Cloudy
8:55 PM 33.8 °F 28.6 °F 32.0 °F 93% 29.89 in 6.2 mi West 5.8 mph - N/A   Unknown
9:02 PM 33.8 °F 28.6 °F 33.8 °F 100% 29.89 in 6.2 mi West 5.8 mph - N/A   Scattered Clouds
9:18 PM 33.8 °F 28.6 °F 33.8 °F 100% 29.89 in 6.2 mi West 5.8 mph - N/A   Mostly Cloudy
9:25 PM 33.8 °F 28.6 °F 33.8 °F 100% 29.89 in 4.3 mi West 5.8 mph - N/A   Mostly Cloudy
9:39 PM 33.8 °F 27.7 °F 33.8 °F 100% 29.89 in 6.2 mi West 6.9 mph - N/A   Mostly Cloudy
9:50 PM 33.8 °F 27.7 °F 33.8 °F 100% 29.89 in 6.2 mi West 6.9 mph - N/A Rain Light Rain
9:55 PM 33.8 °F 27.0 °F 33.8 °F 100% 29.89 in 6.2 mi West 8.1 mph - N/A   Overcast
9:57 PM 33.8 °F 27.0 °F 33.8 °F 100% 29.89 in 6.2 mi West 8.1 mph - N/A   Overcast
10:25 PM 33.8 °F 28.6 °F 33.8 °F 100% 29.89 in 6.2 mi West 5.8 mph - N/A   Mostly Cloudy
10:55 PM 33.8 °F 27.7 °F 33.8 °F 100% 29.89 in 6.2 mi WSW 6.9 mph - N/A   Overcast
11:00 PM 33.8 °F 27.7 °F 33.8 °F 100% 29.89 in 6.2 mi WSW 6.9 mph - N/A   Mostly Cloudy
11:25 PM 33.8 °F 27.7 °F 33.8 °F 100% 29.89 in 6.2 mi WSW 6.9 mph - N/A   Overcast
11:55 PM 33.8 °F 28.6 °F 33.8 °F 100% 29.89 in 6.2 mi West 5.8 mph - N/A   Mostly Cloudy